Weather History for Presque Isle, ME

Change the Weather History Date:

Monday, May 26, 2014

  Actual Average Record
Temperature  
Mean Temperature 55 °F -  
Max Temperature 64 °F 64 °F 87 °F (1950)
Min Temperature 48 °F 41 °F 30 °F (1972)
Degree Days  
Heating Degree Days 10    
Growing Degree Days 5 (Base 50)    
Moisture  
Dew Point 46 °F    
Average Humidity 79    
Maximum Humidity 88    
Minimum Humidity 62    
Precipitation  
Precipitation 0.40 in - - ()
Sea Level Pressure  
Sea Level Pressure 29.78 in    
Wind  
Wind Speed 9 mph (SSE)    
Max Wind Speed 14 mph    
Max Gust Speed 17 mph    
Visibility 10 miles    
Events      
Averages and records for this station are not official NWS values.
T = Trace of Precipitation, MM = Missing Value Source: NWS Daily Summary

Daily Weather History Graph

Daily Weather History Graph

Search for Another Location

Airport:

Trip Planner

Search our weather history database for the weather conditions in past years. The results will help you decide how hot, cold, wet, or windy it might be!

Date:

Astronomy

May. 26, 2014 Rise Set
Actual Time 4:46 AM EDT 8:12 PM EDT
Civil Twilight 4:09 AM EDT 8:49 PM EDT
Nautical Twilight 3:20 AM EDT 9:39 PM EDT
Astronomical Twilight 2:16 AM EDT 10:43 PM EDT
Moon 3:36 AM EDT (5/26) 6:03 PM EDT (5/26)
Length of Visible Light 16h 40m
Length of Day
15h 25m
Waning Crescent, 5% of the Moon is Illuminated
May 26
Waning Crescent
May 28
New
Jun 5
First Quarter
Jun 13
Full
Jun 19
Last Quarter

Hourly Weather History & Observations

Time (EDT) Temp. Dew Point Humidity Pressure Visibility Wind Dir Wind Speed Gust Speed Precip Events Conditions
12:15 AM 53.6 °F 41.0 °F 62% 29.90 in 10.0 mi SSE 10.4 mph - N/A   Partly Cloudy
12:35 AM 53.6 °F 41.0 °F 62% 29.88 in 10.0 mi SSE 12.7 mph - N/A   Partly Cloudy
12:55 AM 51.8 °F 41.0 °F 67% 29.87 in 10.0 mi SSE 13.8 mph 17.3 mph N/A   Mostly Cloudy
1:15 AM 51.8 °F 41.0 °F 67% 29.86 in 10.0 mi SSE 12.7 mph - N/A   Overcast
1:35 AM 51.8 °F 42.8 °F 71% 29.86 in 10.0 mi SSE 9.2 mph - N/A   Overcast
1:55 AM 51.8 °F 42.8 °F 71% 29.86 in 10.0 mi SSE 9.2 mph - N/A   Overcast
2:15 AM 51.8 °F 42.8 °F 71% 29.84 in 10.0 mi SSE 10.4 mph - N/A   Overcast
2:35 AM 50.0 °F 42.8 °F 76% 29.83 in 10.0 mi SSE 11.5 mph - N/A   Overcast
2:55 AM 50.0 °F 44.6 °F 82% 29.83 in 10.0 mi SSE 10.4 mph - 0.01 in   Overcast
3:15 AM 50.0 °F 44.6 °F 82% 29.82 in 10.0 mi SSE 9.2 mph - 0.01 in   Overcast
3:35 AM 48.2 °F 44.6 °F 87% 29.78 in 10.0 mi SSE 13.8 mph - 0.04 in   Mostly Cloudy
3:55 AM 48.2 °F 44.6 °F 87% 29.78 in 10.0 mi South 6.9 mph - 0.06 in   Overcast
4:15 AM 50.0 °F 44.6 °F 82% 29.80 in 10.0 mi SE 4.6 mph - 0.01 in   Overcast
4:35 AM 48.2 °F 44.6 °F 87% 29.77 in 8.0 mi SSE 9.2 mph - 0.11 in   Overcast
4:55 AM 50.0 °F 44.6 °F 82% 29.77 in 5.0 mi East 3.5 mph - 0.23 in   Overcast
5:15 AM 48.2 °F 44.6 °F 87% 29.76 in 9.0 mi SSE 13.8 mph - 0.07 in   Overcast
5:35 AM 50.0 °F 44.6 °F 82% 29.75 in 10.0 mi SSE 10.4 mph - 0.07 in   Overcast
5:55 AM 48.2 °F 44.6 °F 87% 29.74 in 9.0 mi SSE 10.4 mph - 0.10 in   Overcast
6:15 AM 50.0 °F 44.6 °F 82% 29.75 in 10.0 mi SE 3.5 mph - N/A   Overcast
6:35 AM 50.0 °F 44.6 °F 82% 29.75 in 10.0 mi SSE 8.1 mph - N/A   Overcast
6:55 AM 51.8 °F 46.4 °F 82% 29.75 in 10.0 mi SSE 6.9 mph - N/A   Overcast
7:15 AM 51.8 °F 46.4 °F 82% 29.75 in 10.0 mi SSE 6.9 mph - N/A   Overcast
7:35 AM 51.8 °F 48.2 °F 88% 29.75 in 10.0 mi South 6.9 mph - N/A   Overcast
7:55 AM 53.6 °F 48.2 °F 82% 29.74 in 10.0 mi SE 3.5 mph - N/A   Overcast
8:15 AM 53.6 °F 48.2 °F 82% 29.75 in 10.0 mi South 6.9 mph - N/A   Overcast
8:35 AM 53.6 °F 48.2 °F 82% 29.75 in 10.0 mi SE 5.8 mph - N/A   Overcast
8:55 AM 55.4 °F 50.0 °F 82% 29.75 in 10.0 mi SSE 6.9 mph - N/A   Overcast
9:15 AM 55.4 °F 51.8 °F 88% 29.75 in 10.0 mi South 6.9 mph - N/A   Overcast
9:35 AM 59.0 °F 53.6 °F 82% 29.74 in 10.0 mi South 5.8 mph - N/A   Mostly Cloudy
9:55 AM 60.8 °F 53.6 °F 77% 29.74 in 10.0 mi SSW 6.9 mph - N/A   Mostly Cloudy
10:15 AM 60.8 °F 53.6 °F 77% 29.73 in 10.0 mi South 4.6 mph - N/A   Overcast
10:35 AM 62.6 °F 53.6 °F 72% 29.72 in 10.0 mi South 5.8 mph - N/A   Overcast
10:55 AM 64.4 °F 53.6 °F 68% 29.71 in 10.0 mi WSW 6.9 mph - N/A   Overcast